map of ROB home
ROB - Airport
Location
City:  Monrovia, Liberia
Name:Roberts Field
ICAO:GLRB
IATA:ROB

Details
Type:Airport (Aerodrome, Airfield)
Use:Public/Civil, International (customs port of entry)
Latitude:614'02"N (6.233789)
Longitude:1021'44"W (-10.362310)
Datum:WGS 1984
Elevation:31 ft (9 m)
Variation:6.41W (WMM2015v2 magnetic declination)
0.15 annual change
Runways:1
Longest:11000 × 150 ft (3353 × 45.5 m), paved

Time
Time Zone:UTC+0
Local Time:

Weather
METAR:GLRB 041400Z 27004KT 9999 SCT022 32/22 Q1011 NOSIG
TAF:GLRB 041000Z 0412/0518 20010KT 9999 BKN020
TEMPO 0413/0417 25017KT 9999 SCT025
BECMG 0418/0420 22008KT 9000 FEW017

Related Locations
Nearby:
Farthest:SCZ: 12033 mi / 19365 km
Santa Cruz Islands [Santa Cruz/Graciosa Bay/Luova Airport], TE, SB

Find:

   beyond  
but within

Other Information
Maps:
NOTAMs:
Links:
Sources:

  
  • flag of Liberia
  

Sectional Chart

Flight Planning
at skyvector.com

Satellite Image

Google Maps Satellite view

 

Copyright © 2004-2019 Karl L. Swartz. All rights reserved.
The Great Circle Mapper name and logo are trademarks of the Great Circle Mapper.
All other trademarks mentioned herein belong to their respective owners.
Please see credits for attibutions and further copyright information.

  Follow gcmap on Facebook Follow gcmap on Twitter GCmap on LinkedIn

hCard Microformat

Geo Microformat